Clermont County, Batavia, OH

2:40 PM EDT on April 22, 2018 (GMT -0400)
Clermont County, Batavia

Weather History for KI69 - September, 2013

Change the Weather History Date:

Sunday, September 29, 2013

  Actual Average (KLUK) Record (KLUK)
Temperature  
Mean Temperature 65 °F -  
Max Temperature 73 °F 73 °F 90 °F (1971)
Min Temperature 57 °F 49 °F 34 °F (1951)
Growing Degree Days 15 (Base 50)    
Moisture  
Dew Point 58 °F    
Average Humidity 81    
Maximum Humidity 100    
Minimum Humidity 57    
Precipitation  
Precipitation 0.00 in - - ()
Sea Level Pressure  
Sea Level Pressure 30.06 in    
Wind  
Wind Speed 2 mph ()    
Max Wind Speed 15 mph    
Max Gust Speed 20 mph    
Visibility 10.0 miles    
Events Rain    
Averages and records for this station are not official NWS values.
T = Trace of Precipitation, MM = Missing Value Source: Averaged Metar Reports

Daily Weather History Graph

Daily Weather History Graph

Search for Another Location

Airport or City:

Astronomy

Sep. 29, 2013 Rise Set
Actual Time 7:31 AM EDT 7:22 PM EDT
Civil Twilight 7:04 AM EDT 7:48 PM EDT
Nautical Twilight 6:33 AM EDT 8:19 PM EDT
Astronomical Twilight 6:02 AM EDT 8:51 PM EDT
Moon 2:13 AM EDT (9/29) 4:15 PM EDT (9/29)
Length of Visible Light 12h 44m
Length of Day
11h 51m
Waning Crescent, 27% of the Moon is Illuminated
Sep 29
Waning Crescent
Oct 4
New
Oct 11
First Quarter
Oct 18
Full
Oct 26
Last Quarter

Hourly Weather History & Observations

Time (EDT) Temp. Dew Point Humidity Pressure Visibility Wind Dir Wind Speed Gust Speed Precip Events Conditions
12:15 AM 62.6 °F 55.4 °F 77% 30.08 in 10.0 mi Calm Calm - N/A   Scattered Clouds
12:36 AM 62.6 °F 55.4 °F 77% 30.08 in 10.0 mi Calm Calm - N/A   Scattered Clouds
12:55 AM 62.6 °F 55.4 °F 77% 30.08 in 10.0 mi Calm Calm - N/A   Clear
1:15 AM 62.6 °F 55.4 °F 77% 30.08 in 10.0 mi Calm Calm - N/A   Clear
1:36 AM 60.8 °F 57.2 °F 88% 30.08 in 10.0 mi Calm Calm - N/A   Clear
1:55 AM 60.8 °F 57.2 °F 88% 30.08 in 10.0 mi Calm Calm - N/A   Clear
2:15 AM 60.8 °F 55.4 °F 82% 30.08 in 10.0 mi Calm Calm - N/A   Clear
2:36 AM 60.8 °F 57.2 °F 88% 30.08 in 10.0 mi Calm Calm - N/A   Clear
2:55 AM 59.0 °F 57.2 °F 94% 30.08 in 10.0 mi Calm Calm - N/A   Scattered Clouds
3:15 AM 59.0 °F 55.4 °F 88% 30.08 in 10.0 mi Calm Calm - N/A   Clear
3:36 AM 59.0 °F 57.2 °F 94% 30.08 in 10.0 mi Calm Calm - N/A   Clear
3:55 AM 59.0 °F 55.4 °F 88% 30.07 in 10.0 mi Calm Calm - N/A   Clear
4:16 AM 59.0 °F 57.2 °F 94% 30.07 in 10.0 mi Calm Calm - N/A   Clear
4:36 AM 59.0 °F 57.2 °F 94% 30.07 in 10.0 mi Calm Calm - N/A   Scattered Clouds
4:55 AM 57.2 °F 55.4 °F 94% 30.07 in 7.0 mi Calm Calm - N/A   Scattered Clouds
5:16 AM 59.0 °F 59.0 °F 100% 30.07 in 10.0 mi Calm Calm - N/A   Overcast
5:36 AM 59.0 °F 57.2 °F 94% 30.06 in 10.0 mi Calm Calm - N/A   Mostly Cloudy
5:55 AM 59.0 °F 57.2 °F 94% 30.07 in 10.0 mi Calm Calm - N/A   Scattered Clouds
6:16 AM 59.0 °F 57.2 °F 94% 30.07 in 10.0 mi Calm Calm - N/A   Clear
6:36 AM 59.0 °F 59.0 °F 100% 30.07 in 10.0 mi Calm Calm - N/A   Scattered Clouds
6:55 AM 60.8 °F 59.0 °F 94% 30.07 in 10.0 mi Calm Calm - N/A   Mostly Cloudy
7:16 AM 60.8 °F 59.0 °F 94% 30.07 in 10.0 mi Calm Calm - N/A   Scattered Clouds
7:36 AM 60.8 °F 57.2 °F 88% 30.07 in 10.0 mi Calm Calm - N/A   Clear
7:55 AM 60.8 °F 57.2 °F 88% 30.08 in 10.0 mi Calm Calm - N/A   Clear
8:16 AM 62.6 °F 59.0 °F 88% 30.08 in 10.0 mi Calm Calm - N/A   Clear
8:36 AM 60.8 °F 59.0 °F 94% 30.08 in 10.0 mi Calm Calm - N/A   Clear
8:55 AM 62.6 °F 59.0 °F 88% 30.08 in 10.0 mi Calm Calm - N/A   Clear
9:16 AM 62.6 °F 59.0 °F 88% 30.08 in 10.0 mi SW 4.6 mph - N/A   Clear
9:36 AM 64.4 °F 59.0 °F 83% 30.07 in 10.0 mi SW 4.6 mph - N/A   Clear
9:55 AM 66.2 °F 59.0 °F 78% 30.07 in 10.0 mi SW 3.5 mph - N/A   Clear
10:16 AM 68.0 °F 59.0 °F 73% 30.07 in 10.0 mi SW 6.9 mph - N/A   Clear
10:36 AM 68.0 °F 59.0 °F 73% 30.08 in 10.0 mi SW 3.5 mph - N/A   Clear
10:55 AM 68.0 °F 59.0 °F 73% 30.08 in 10.0 mi SW 5.8 mph - N/A   Mostly Cloudy
11:16 AM 68.0 °F 59.0 °F 73% 30.08 in 10.0 mi SW 6.9 mph - N/A   Overcast
11:36 AM 68.0 °F 59.0 °F 73% 30.08 in 10.0 mi SSW 4.6 mph - N/A   Overcast
11:56 AM 69.8 °F 59.0 °F 68% 30.08 in 10.0 mi SW 8.1 mph - N/A   Overcast
12:16 PM 71.6 °F 59.0 °F 64% 30.08 in 10.0 mi WSW 10.4 mph - N/A   Overcast
12:35 PM 73.4 °F 59.0 °F 61% 30.07 in 10.0 mi SW 15.0 mph 19.6 mph N/A   Overcast
12:56 PM 73.4 °F 57.2 °F 57% 30.07 in 10.0 mi WSW 12.7 mph 16.1 mph N/A   Mostly Cloudy
1:16 PM 71.6 °F 57.2 °F 60% 30.07 in 10.0 mi WSW 11.5 mph 17.3 mph N/A   Mostly Cloudy
1:35 PM 71.6 °F 57.2 °F 60% 30.07 in 10.0 mi WSW 9.2 mph - N/A   Mostly Cloudy
1:56 PM 71.6 °F 57.2 °F 60% 30.06 in 10.0 mi WSW 5.8 mph - N/A   Mostly Cloudy
2:16 PM 71.6 °F 57.2 °F 60% 30.05 in 10.0 mi SW 4.6 mph - N/A   Overcast
2:35 PM 71.6 °F 59.0 °F 64% 30.05 in 10.0 mi WSW 8.1 mph - N/A   Overcast
2:56 PM 71.6 °F 59.0 °F 64% 30.04 in 10.0 mi WSW 6.9 mph - N/A   Overcast
3:16 PM 69.8 °F 59.0 °F 68% 30.05 in 10.0 mi West 11.5 mph 17.3 mph N/A   Overcast
3:35 PM 68.0 °F 59.0 °F 73% 30.05 in 10.0 mi West 12.7 mph - N/A   Overcast
3:56 PM 68.0 °F 59.0 °F 73% 30.04 in 10.0 mi West 10.4 mph - N/A   Overcast
4:16 PM 68.0 °F 59.0 °F 73% 30.04 in 10.0 mi WSW 12.7 mph 18.4 mph N/A   Overcast
4:35 PM 68.0 °F 59.0 °F 73% 30.04 in 10.0 mi WSW 12.7 mph 17.3 mph N/A   Overcast
4:56 PM 68.0 °F 59.0 °F 73% 30.04 in 10.0 mi WSW 11.5 mph - N/A Rain Light Rain
5:16 PM 66.2 °F 59.0 °F 78% 30.04 in 10.0 mi West 8.1 mph - N/A Rain Light Rain
5:35 PM 66.2 °F 59.0 °F 78% 30.04 in 10.0 mi West 9.2 mph - N/A   Overcast
5:56 PM 66.2 °F 59.0 °F 78% 30.04 in 10.0 mi West 6.9 mph - N/A   Overcast
6:16 PM 66.2 °F 59.0 °F 78% 30.04 in 10.0 mi West 6.9 mph - N/A   Mostly Cloudy
6:35 PM 66.2 °F 59.0 °F 78% 30.04 in 10.0 mi West 4.6 mph - N/A   Overcast
6:56 PM 64.4 °F 59.0 °F 83% 30.04 in 10.0 mi WSW 6.9 mph - N/A   Overcast
7:16 PM 64.4 °F 59.0 °F 83% 30.04 in 10.0 mi WSW 6.9 mph - N/A   Overcast
7:35 PM 64.4 °F 59.0 °F 83% 30.03 in 10.0 mi SW 5.8 mph - N/A   Overcast
7:56 PM 64.4 °F 59.0 °F 83% 30.03 in 10.0 mi Calm Calm - N/A   Overcast
8:16 PM 64.4 °F 59.0 °F 83% 30.03 in 10.0 mi Calm Calm - N/A   Overcast
8:35 PM 64.4 °F 59.0 °F 83% 30.03 in 10.0 mi SW 3.5 mph - N/A   Overcast
8:56 PM 64.4 °F 59.0 °F 83% 30.04 in 10.0 mi WSW 4.6 mph - N/A   Overcast
9:16 PM 64.4 °F 59.0 °F 83% 30.03 in 10.0 mi Calm Calm - N/A   Overcast
9:35 PM 64.4 °F 59.0 °F 83% 30.04 in 10.0 mi Calm Calm - N/A   Overcast
9:56 PM 64.4 °F 59.0 °F 83% 30.04 in 10.0 mi West 4.6 mph - N/A   Overcast
10:16 PM 64.4 °F 59.0 °F 83% 30.04 in 10.0 mi Calm Calm - N/A   Overcast
10:35 PM 62.6 °F 59.0 °F 88% 30.04 in 10.0 mi Calm Calm - N/A   Overcast
10:56 PM 62.6 °F 59.0 °F 88% 30.04 in 10.0 mi Calm Calm - N/A   Overcast
11:16 PM 62.6 °F 59.0 °F 88% 30.04 in 10.0 mi Calm Calm - N/A   Overcast
11:35 PM 62.6 °F 59.0 °F 88% 30.04 in 10.0 mi Calm Calm - N/A   Light Drizzle
11:56 PM 62.6 °F 59.0 °F 88% 30.04 in 10.0 mi Calm Calm - N/A   Overcast